[[{"header":{"parameterUnit":"m.s-1","parameterCategory":1,"la1":30.2991,"la2":30.254,"lo1":-89.0895,"lo2":-89.0444,"dy":0.0017,"dx":0.0017,"nx":28,"ny":28,"refTime":"2025-05-27T09:00:00:Z","depth":0,"parameterNumber":2,"parameterNumberName":"U-component_of_WINDS"},"data":[0,0,0,0,0,0,0,0,0,0,0,0,0,0,0,0,0,0,0,0,0,0,0,0,0,0,0,0,0,0,0,0,0,0,0,0,0,0,0,0,0,0,0,0,0,0,0,0,0,0,0,0,0,0,0,0,0,0,0.9814,0.9814,0,0.9881,0.9882,0.9883,0.9897,0.9897,0.9896,0.9896,0.9964,0.9966,0.9969,0,0,0,0,0,0,0,0,0,0,0,0,0,0.9693,0.9695,0.9814,0.9814,0.9815,0.9881,0.9882,0.9883,0.9897,0.9897,0.9896,0.9896,0.9963,0.9966,0.9969,0,0,0,0,0,0,0,0,0,0,0,0,0,0.9751,0.9696,0.9813,0.983,0.9833,0.9881,0.9882,0.9883,0.9897,0.9897,0.9896,0.9895,0.9963,0.9966,0.9969,1.0005,0,0,0.998,0.9981,0,0,0,0,0,0,0,0,0.9748,0.9756,0.9827,0.9829,0.9832,0.988,0.9865,0.9924,0.9898,0.9873,0.9896,0.9895,0.9937,0.9942,0.9957,1.0009,1.0012,0.998,0.9982,0.9984,0.9985,0,0,0,0,0,0,0,0.9744,0.9753,0.984,0.9828,0.9831,0.9833,0.9841,0.9876,0.9908,0.9875,0.9876,0.9884,0.9938,0.9953,0.9958,1.0013,0.998,0.9983,0.9985,0.9986,1.0093,1.0094,0,0,0,0,0,0,0.9737,0.9749,0.9838,0.9842,0.9787,0.9836,0.9844,0.9865,0.9908,0.9914,0.9884,0.9884,0.9948,0.9954,0.9961,1.0004,0.9984,0.9987,0.9989,1.0092,1.0093,1.0094,0,0,0,0,0,0,0.9734,0.9745,0.9836,0.9796,0.9808,0.9839,0.9862,0.9867,0.9883,0.9915,0.9921,0.9895,0.9947,0.9956,0.9993,1.0006,0.9988,0.9991,1.0091,1.0093,1.0094,1.0091,0,0,0,0,0,0,0.9731,0.9744,0.9759,0.9796,0.981,0.9868,0.9863,0.9869,0.9888,0.9889,0.9926,0.9931,0.9947,0.9988,0.9997,1.0011,0.9994,1.009,1.0092,1.0093,1.009,1.0092,1.0093,0,0,0,0,0,0.9727,0.9757,0.976,0.9771,0.983,0.9869,0.9877,0.9895,0.989,0.9904,0.9924,0.993,1.0003,0.9992,1.0002,1.0017,1.009,1.0092,1.0093,1.0089,1.0091,1.0093,0,0,0,0,0,0,0.9721,0.9762,0.9766,0.9809,0.9835,0.9871,0.9891,0.9897,0.9926,0.9925,0.9946,0.9954,0.9989,1.0007,0.9993,1.0052,1.0046,1.005,1.0039,1.0042,1.0043,1.0038,0.9997,0,0,0,0,0,0.9725,0.9754,0.9788,0.9822,0.9835,0.986,0.9878,0.989,0.9917,0.9929,0.9952,0.9978,1.0006,1.0025,1.0053,1.0092,1.0099,1.0107,1.0108,1.0109,1.0113,1.0131,1.0134,1.01,1.01,1.01,0,0,0.9733,0.9759,0.9776,0.9822,0.9843,0.9871,0.987,0.9901,0.9921,0.9933,0.997,0.9987,1.0017,1.0054,1.0072,1.007,1.0123,1.0112,1.0112,1.0115,1.0133,1.0136,1.0139,1.0101,1.0101,1.0101,0,0,0.9762,0.9786,0.9815,0.9836,0.9868,0.9884,0.9891,0.9925,0.9937,0.9974,0.9982,1.0006,1.0055,1.0076,1.0092,1.0124,1.0129,1.0132,1.0141,1.0159,1.0161,1.0164,1.0173,1.0176,1.0135,1.0135,1.0135,0,0.9769,0.9812,0.983,0.9859,0.9877,0.9888,0.9917,0.9936,0.9976,0.9988,0.9985,1.0044,1.0066,1.0106,1.0113,1.0127,1.0134,1.0129,1.016,1.0162,1.0165,1.0174,1.0177,1.0135,1.0135,1.0135,1.0135,0,0.9817,0.9846,0.9866,0.9903,0.9924,0.9953,0.9973,0.9991,0.9999,1.0015,1.005,1.0075,1.0107,1.0117,1.0127,1.0158,1.0155,1.0156,1.015,1.0168,1.0176,1.018,1.0135,1.0135,1.0135,1.0135,0,0,0.9848,0.989,0.9897,0.9913,0.9947,0.9969,0.9997,1.0028,1.0042,1.0068,1.009,1.0129,1.0129,1.0147,1.0158,1.0174,1.0194,1.0172,1.0173,1.0174,1.0227,1.0226,1.023,1.0197,1.0198,1.0198,1.0224,0,0.988,0.9931,0.9945,0.9987,1.0013,1.0021,1.0045,1.0067,1.0081,1.0104,1.012,1.0146,1.0145,1.0155,1.0171,1.0188,1.0204,1.0186,1.0217,1.0218,1.0209,1.0235,1.0235,1.0258,1.0228,1.0228,1.0229,0,0.9925,0.995,0.9994,1.0021,1.0033,1.0054,1.0081,1.0104,1.0128,1.0136,1.0155,1.0164,1.0191,1.0183,1.0219,1.0206,1.0218,1.0228,1.0229,1.0233,1.0224,1.0238,1.0266,1.0269,1.0234,1.0234,1.0234,0,0.9941,0.9985,1.0017,1.003,1.0063,1.0077,1.0091,1.0114,1.013,1.0154,1.0164,1.019,1.0204,1.0223,1.0237,1.0231,1.0271,1.0265,1.0278,1.0277,1.0287,1.0286,1.0316,1.0295,1.0295,1.0295,1.0295,0,0.9975,1.0001,1.0024,1.0043,1.0072,1.0087,1.0114,1.0128,1.0148,1.0169,1.0178,1.0197,1.0215,1.0235,1.0247,1.0273,1.028,1.0286,1.0289,1.0286,1.0285,1.0295,1.0293,1.0296,1.0296,1.0296,1.0296,0,0.9998,1.0014,1.0049,1.0076,1.0083,1.0102,1.0125,1.0143,1.0156,1.0182,1.0188,1.0209,1.0233,1.0249,1.0281,1.0288,1.0316,1.0319,1.0308,1.0309,1.0321,1.0319,1.0359,1.0364,1.034,1.034,1.034,0,1.0019,1.0039,1.0067,1.0081,1.0095,1.0119,1.0134,1.0148,1.0164,1.0191,1.0205,1.0229,1.025,1.0289,1.0305,1.0329,1.0331,1.0343,1.0335,1.033,1.033,1.0328,1.0329,1.0345,1.0345,1.0345,1.0345,0,1.0053,1.0059,1.0082,1.0106,1.0124,1.0144,1.0164,1.0175,1.0192,1.0209,1.0233,1.0249,1.028,1.0304,1.0328,1.0341,1.0345,1.0347,1.0351,1.0348,1.0341,1.0343,1.0311,1.0347,1.0347,1.0347,1.0346,1.0346,1.0075,1.0092,1.0113,1.0137,1.0152,1.017,1.0187,1.0201,1.0222,1.0248,1.0254,1.028,1.0299,1.0332,1.0345,1.0364,1.0362,1.0368,1.037,1.0371,1.037,1.0337,1.0368,1.0368,1.0368,1.0368,1.0368,0,1.0108,1.0121,1.0143,1.0169,1.0187,1.0189,1.0209,1.0224,1.0246,1.0264,1.0284,1.031,1.0332,1.0349,1.0372,1.0383,1.0385,1.0388,1.0387,1.039,1.0371,1.0365,1.0386,1.0386,1.0386,1.0386,1.0386,1.0386,1.0128,1.0155,1.0163,1.0197,1.021,1.0235,1.0246,1.0261,1.0276,1.0305,1.0323,1.0334,1.035,1.0373,1.0393,1.0397,1.0404,1.0407,1.0411,1.0394,1.0392,1.039,1.0384,1.0408,1.0408,1.0428,1.0428,1.0428]},{"header":{"parameterUnit":"m.s-1","parameterCategory":1,"la1":30.2991,"la2":30.254,"lo1":-89.0895,"lo2":-89.0444,"dy":0.0017,"dx":0.0017,"nx":28,"ny":28,"refTime":"2025-05-27T09:00:00:Z","depth":0,"parameterNumber":3,"parameterNumberName":"V-component_of_WINDS"},"data":[0,0,0,0,0,0,0,0,0,0,0,0,0,0,0,0,0,0,0,0,0,0,0,0,0,0,0,0,0,0,0,0,0,0,0,0,0,0,0,0,0,0,0,0,0,0,0,0,0,0,0,0,0,0,0,0,0,0,5.0823,5.0824,0,5.0912,5.0913,5.0914,5.0881,5.0879,5.0877,5.0875,5.0959,5.0963,5.0967,0,0,0,0,0,0,0,0,0,0,0,0,0,5.0616,5.062,5.0823,5.0824,5.0826,5.0912,5.0913,5.0915,5.0881,5.0879,5.0876,5.0874,5.0957,5.0962,5.0967,0,0,0,0,0,0,0,0,0,0,0,0,0,5.0706,5.0622,5.0823,5.082,5.082,5.0912,5.0913,5.0915,5.0882,5.0879,5.0876,5.0873,5.0956,5.0962,5.0968,5.1066,0,0,5.0986,5.0989,0,0,0,0,0,0,0,0,5.0701,5.0713,5.0819,5.082,5.0821,5.0883,5.0871,5.0965,5.0882,5.0858,5.0875,5.0871,5.0935,5.0943,5.0966,5.107,5.1074,5.0987,5.0991,5.0993,5.0995,0,0,0,0,0,0,0,5.0695,5.0709,5.0858,5.082,5.0822,5.0811,5.082,5.0889,5.0912,5.086,5.0858,5.0869,5.0935,5.096,5.0968,5.1075,5.0987,5.0992,5.0996,5.0999,5.1263,5.1266,0,0,0,0,0,0,5.0689,5.0704,5.0855,5.0861,5.0752,5.0817,5.0827,5.0866,5.0911,5.0916,5.0872,5.0867,5.0951,5.096,5.097,5.1089,5.0993,5.0999,5.1003,5.126,5.1264,5.1267,0,0,0,0,0,0,5.0685,5.0703,5.0852,5.0782,5.08,5.0824,5.0867,5.0869,5.0894,5.092,5.0924,5.0894,5.0949,5.0962,5.1043,5.1091,5.1002,5.1007,5.1256,5.1261,5.1265,5.1326,0,0,0,0,0,0,5.0679,5.0702,5.0741,5.0783,5.0804,5.0925,5.087,5.0873,5.0906,5.0901,5.0942,5.0946,5.0948,5.1034,5.1049,5.1098,5.1012,5.1251,5.1258,5.1264,5.132,5.1332,5.1343,0,0,0,0,0,5.0672,5.0753,5.0743,5.0762,5.0855,5.0928,5.094,5.0943,5.091,5.0948,5.0965,5.0944,5.1083,5.1042,5.1059,5.1111,5.1248,5.1256,5.1263,5.1314,5.133,5.1343,0,0,0,0,0,0,5.0713,5.0759,5.0748,5.0846,5.0884,5.0923,5.0972,5.0959,5.1005,5.0998,5.0997,5.1007,5.1091,5.1108,5.1062,5.1208,5.116,5.1172,5.1193,5.1208,5.122,5.1214,5.1017,0,0,0,0,0,5.0735,5.0793,5.0828,5.0911,5.0931,5.0948,5.098,5.0979,5.1017,5.1032,5.1055,5.1091,5.1142,5.1176,5.1225,5.1322,5.1329,5.1365,5.1377,5.1386,5.1396,5.1448,5.1464,5.1292,5.1292,5.1292,0,0,5.0778,5.081,5.0846,5.092,5.095,5.1008,5.0962,5.1025,5.1068,5.1041,5.112,5.1138,5.1177,5.1267,5.1307,5.1284,5.1445,5.1396,5.1403,5.1408,5.1457,5.1474,5.1488,5.1297,5.1296,5.1295,0,0,5.0887,5.0917,5.099,5.102,5.1066,5.1077,5.1094,5.1135,5.1146,5.1226,5.1207,5.1256,5.1345,5.1374,5.14,5.1519,5.1501,5.1535,5.1596,5.1647,5.166,5.1672,5.1715,5.173,5.1544,5.1544,5.1545,0,5.0934,5.1024,5.1028,5.1094,5.1126,5.1107,5.1179,5.1207,5.1265,5.1287,5.1261,5.1372,5.1397,5.1493,5.1522,5.1544,5.1563,5.1531,5.1659,5.1671,5.1682,5.1722,5.1738,5.1548,5.1548,5.1547,5.1547,0,5.108,5.1142,5.1195,5.1254,5.1292,5.1361,5.1373,5.141,5.1405,5.1418,5.1498,5.1528,5.1583,5.1605,5.16,5.17,5.1684,5.1659,5.1611,5.1702,5.174,5.1755,5.1554,5.1552,5.1551,5.155,0,0,5.1218,5.1279,5.1299,5.1325,5.1374,5.142,5.1487,5.1543,5.1575,5.1614,5.1669,5.1745,5.1722,5.1751,5.1749,5.1794,5.1886,5.1762,5.1763,5.1785,5.1997,5.2017,5.2035,5.1875,5.1877,5.188,5.1994,0,5.1331,5.1452,5.1456,5.1565,5.1622,5.1603,5.1661,5.1695,5.1709,5.1757,5.177,5.1824,5.1789,5.1807,5.185,5.1866,5.1929,5.1858,5.1924,5.1926,5.1916,5.2055,5.2076,5.2183,5.2009,5.2012,5.2013,0,5.148,5.1527,5.1642,5.1682,5.1706,5.1759,5.181,5.1856,5.1894,5.19,5.1934,5.1926,5.1991,5.1941,5.2031,5.1982,5.2009,5.2021,5.2025,5.2031,5.1976,5.2065,5.2217,5.2233,5.2037,5.2035,5.2033,0,5.157,5.1662,5.1743,5.1766,5.1814,5.1851,5.1873,5.1908,5.1941,5.1984,5.2005,5.2055,5.2082,5.212,5.2124,5.2088,5.2214,5.2164,5.222,5.222,5.2248,5.2246,5.2406,5.2265,5.2264,5.2264,5.2264,0,5.1696,5.1767,5.1784,5.1833,5.1911,5.1915,5.1991,5.2009,5.2041,5.2092,5.2077,5.2125,5.2128,5.2176,5.2179,5.2253,5.2265,5.2271,5.2271,5.2272,5.2272,5.229,5.2283,5.2268,5.2267,5.2267,5.2266,0,5.181,5.1824,5.1911,5.195,5.1962,5.2018,5.205,5.2096,5.2108,5.2173,5.2188,5.2206,5.2262,5.227,5.2334,5.2336,5.2425,5.2417,5.2413,5.2412,5.2467,5.2462,5.2645,5.2669,5.2512,5.2513,5.2514,0,5.189,5.1944,5.199,5.2024,5.2049,5.2104,5.2138,5.2142,5.2178,5.2225,5.2265,5.232,5.2365,5.2454,5.2472,5.2521,5.2514,5.2575,5.2521,5.2522,5.2516,5.2513,5.2518,5.2585,5.2587,5.2588,5.259,0,5.203,5.2035,5.2086,5.214,5.2181,5.2223,5.2262,5.229,5.2299,5.234,5.2398,5.2433,5.25,5.2554,5.2603,5.2622,5.2607,5.2606,5.2622,5.2624,5.262,5.2624,5.2442,5.2602,5.2601,5.26,5.2599,5.2599,5.213,5.2177,5.2217,5.2274,5.2305,5.2342,5.2387,5.2405,5.2455,5.2512,5.251,5.2574,5.2609,5.2673,5.2696,5.2745,5.2725,5.2747,5.2753,5.2758,5.2764,5.2612,5.2753,5.2753,5.2753,5.2752,5.2752,0,5.227,5.2295,5.2347,5.2404,5.2448,5.2432,5.2474,5.2512,5.2569,5.2604,5.2649,5.2715,5.2768,5.2789,5.284,5.2875,5.2869,5.2888,5.2886,5.2891,5.2779,5.2761,5.2892,5.2892,5.2892,5.2892,5.2892,5.2892,5.2348,5.2428,5.2437,5.2531,5.2554,5.2619,5.2644,5.2677,5.2705,5.2781,5.2826,5.284,5.2869,5.2922,5.2969,5.2973,5.2993,5.3015,5.3017,5.2912,5.2898,5.2885,5.2868,5.3019,5.3019,5.3124,5.3125,5.3126]}]]